Time,TemperatureF,DewpointF,PressureIn,WindDirection,WindDirectionDegrees,WindSpeedMPH,WindSpeedGustMPH,Humidity,HourlyPrecipIn,Conditions,Clouds,dailyrainin,SoftwareType,DateUTC
2013-05-22 22:03:00,54.4,53.6,29.93,North,350,0.0,0.0,97,0.53,RA,,0.54,WeatherDisplay:10.37,2013-05-23 02:03:00,
2013-05-22 22:04:00,53.9,53.1,29.93,North,350,0.0,0.0,97,0.53,RA,,0.54,WeatherDisplay:10.37,2013-05-23 02:04:00,
2013-05-22 22:05:00,53.9,53.1,29.93,North,350,0.6,1.2,97,0.53,RA,,0.54,WeatherDisplay:10.37,2013-05-23 02:05:00,
2013-05-22 22:10:00,53.9,53.0,29.93,North,350,0.0,2.0,97,0.00,RA,,0.54,WeatherDisplay:10.37,2013-05-23 02:10:00,
2013-05-22 22:15:00,53.8,53.0,29.92,NNE,23,0.0,0.0,97,0.52,,,0.54,WeatherDisplay:10.37,2013-05-23 02:15:00,
2013-05-22 22:20:00,53.7,52.9,29.92,NNE,23,0.0,0.0,97,0.00,,,0.54,WeatherDisplay:10.37,2013-05-23 02:20:00,
2013-05-22 22:25:00,53.7,52.9,29.93,NNE,22,0.0,0.0,97,0.00,,,0.54,WeatherDisplay:10.37,2013-05-23 02:25:00,
2013-05-22 22:30:00,53.7,52.8,29.93,NNE,22,0.0,0.0,97,0.00,,,0.54,WeatherDisplay:10.37,2013-05-23 02:30:00,
2013-05-22 22:35:00,53.6,53.0,29.93,NNE,22,0.0,0.0,98,0.00,,,0.54,WeatherDisplay:10.37,2013-05-23 02:35:00,
2013-05-22 22:40:00,53.6,53.0,29.92,NNE,22,0.0,0.0,98,0.00,,,0.54,WeatherDisplay:10.37,2013-05-23 02:40:00,
2013-05-22 22:45:00,53.6,53.0,29.92,NNE,22,0.0,0.0,98,0.00,,,0.54,WeatherDisplay:10.37,2013-05-23 02:45:00,
2013-05-22 22:50:00,53.6,53.0,29.92,NNE,22,0.0,1.0,98,0.00,,,0.54,WeatherDisplay:10.37,2013-05-23 02:50:00,
2013-05-22 22:55:00,53.6,53.0,29.92,NNE,22,0.0,2.0,98,0.00,,,0.54,WeatherDisplay:10.37,2013-05-23 02:55:00,
2013-05-22 23:00:00,53.6,53.0,29.92,NNE,22,0.0,1.0,98,0.00,,,0.54,WeatherDisplay:10.37,2013-05-23 03:00:00,
2013-05-22 23:05:00,53.5,53.0,29.92,NNE,22,0.0,0.0,98,0.00,,,0.54,WeatherDisplay:10.37,2013-05-23 03:05:00,
2013-05-22 23:10:00,53.5,52.9,29.91,North,8,0.0,2.0,98,0.00,,,0.54,WeatherDisplay:10.37,2013-05-23 03:10:00,
2013-05-22 23:15:00,53.3,52.8,29.91,NNW,329,0.0,0.0,98,0.00,,,0.54,WeatherDisplay:10.37,2013-05-23 03:15:00,
2013-05-22 23:20:00,53.3,52.8,29.91,NNW,329,0.0,0.0,98,0.00,,,0.54,WeatherDisplay:10.37,2013-05-23 03:20:00,
2013-05-22 23:25:00,53.3,52.8,29.91,NNW,329,0.0,1.0,98,0.00,,,0.54,WeatherDisplay:10.37,2013-05-23 03:25:00,
2013-05-22 23:30:00,53.2,52.7,29.91,NNW,329,0.0,1.0,98,0.00,,,0.54,WeatherDisplay:10.37,2013-05-23 03:30:00,
2013-05-22 23:35:00,53.1,52.6,29.90,NNW,329,0.0,0.0,98,0.00,,,0.54,WeatherDisplay:10.37,2013-05-23 03:35:00,
2013-05-22 23:40:00,53.0,52.5,29.90,NNW,329,0.0,1.0,98,0.00,,,0.54,WeatherDisplay:10.37,2013-05-23 03:40:00,
2013-05-22 23:45:00,52.9,52.4,29.90,NNW,348,0.0,1.0,98,0.00,,,0.54,WeatherDisplay:10.37,2013-05-23 03:45:00,
2013-05-22 23:50:00,52.9,52.4,29.90,NNE,13,0.0,0.0,98,0.00,,,0.54,WeatherDisplay:10.37,2013-05-23 03:50:00,
2013-05-22 23:55:00,52.8,52.3,29.90,NNE,13,0.0,1.0,98,0.00,,,0.54,WeatherDisplay:10.37,2013-05-23 03:55:00,